Regional Weather Roundup
Issued by NWS

Home | Current Version | Previous Version | Graphics & Text | Print | Product List | Glossary On
Versions: 1 2 3 4 5 6 7 8 9 10 11 12 13 14 15 16 17 18 19 20 21 22 23 24 25 26 27 28 29 30 31 32 33 34 35 36 37 38 39 40 41 42 43 44 45 46 47 48 49 50
000
ASUS43 KOAX 230410
RWRNE

WEATHER ROUNDUP FOR NEBRASKA
NATIONAL WEATHER SERVICE OMAHA NE
1100 PM CDT SUN APR 22 2018

NOTES: SATELLITE DATA IS BEING USED TO AUGMENT CLOUD COVER ABOVE
       12000 FEET.
       "FAIR" INDICATES FEW OR NO CLOUDS BELOW 12,000 FEET WITH NO
       SIGNIFICANT WEATHER AND/OR OBSTRUCTIONS TO VISIBILITY.


NEZ001>004-019>022-054>056-230500-
NEBRASKA PANHANDLE

CITY           SKY/WX    TMP DP  RH WIND       PRES   REMARKS
SCOTTSBLUFF    CLEAR     45  42  89 SE10      30.13R
ALLIANCE       CLEAR     42  39  89 S10       30.14R
CHADRON        CLEAR     50  41  71 S15       30.10R
GORDON         FAIR      45  38  78 S5        30.14R
KIMBALL        CLEAR     42  38  84 S8        30.15S
SIDNEY         CLEAR     38  32  79 S8        30.16R WCI  32
$$

NEZ057>060-069>072-079>082-230500-
SOUTHWEST NEBRASKA

CITY           SKY/WX    TMP DP  RH WIND       PRES   REMARKS
NORTH PLATTE   MOCLDY    47  41  80 SE6       30.18S
IMPERIAL       CLEAR     41  36  82 E3        30.18R
LEXINGTON      CLEAR     45  40  82 CALM      30.18S
MCCOOK         CLEAR     43  36  76 CALM      30.18R
OGALLALA       CLEAR     43  37  78 E3        30.18R
$$

NEZ005>010-023>029-035>040-094-230500-
NORTH CENTRAL NEBRASKA

CITY           SKY/WX    TMP DP  RH WIND       PRES   REMARKS
VALENTINE      CLEAR     50  38  63 S9        30.17R
AINSWORTH      CLEAR     45  39  80 SW5       30.18S
BROKEN BOW     CLEAR     39  35  86 N3        30.17S
O`NEILL        CLEAR     51  35  54 E3        30.18F
ORD            PTCLDY    39  36  89 CALM      30.17R
THEDFORD       CLEAR     44  38  77 S5        30.19S
$$

NEZ041-046>049-061>064-073>077-083>087-230500-
SOUTH CENTRAL NEBRASKA

CITY           SKY/WX    TMP DP  RH WIND       PRES   REMARKS
GRAND ISLAND   CLOUDY    54  43  66 SE3       30.18S
AURORA         CLOUDY    54  39  57 CALM      30.17S
HASTINGS       CLOUDY    53  42  66 CALM      30.17S
HEBRON         CLOUDY    55  41  60 CALM      30.15S
HOLDREGE       CLOUDY    51  41  69 SE6       30.18S
KEARNEY        CLOUDY    53  39  59 CALM      30.19R
YORK             N/A     54  37  54 CALM      30.17S
$$

NEZ011>018-030>034-042>045-230500-
NORTHEAST NEBRASKA

CITY           SKY/WX    TMP DP  RH WIND       PRES   REMARKS
NORFOLK        CLOUDY    52  36  54 SE5       30.17S
ALBION         CLOUDY    53  39  57 CALM      30.18S
BLAIR          CLEAR     55  30  38 NE8       30.17S
COLUMBUS       CLOUDY    53  36  52 NE5       30.18S
FREMONT        CLEAR     51  32  49 CALM      30.18R
TEKAMAH        CLEAR     45  30  55 NW10      30.18S
WAYNE          CLEAR     49  40  70 E8        30.19S
$$

NEZ050>053-065>068-078-088>093-230500-
SOUTHEAST NEBRASKA

CITY           SKY/WX    TMP DP  RH WIND       PRES   REMARKS
LINCOLN        PTCLDY    50  33  52 NE6       30.16F
OMAHA EPPLEY   CLEAR     53  30  41 CALM      30.16F
BEATRICE       CLEAR     52  35  51 NE6       30.15S
FALLS CITY     CLEAR     56  38  50 E7        30.12F
NEBRASKA CITY  CLEAR     53  33  47 NE5       30.16R
PLATTSMOUTH    CLEAR     55  30  38 NE8       30.16S
$$

NEZ044-045-051>053-067-230500-
OMAHA AREA

CITY           SKY/WX    TMP DP  RH WIND       PRES   REMARKS
OMAHA EPPLEY   CLEAR     53  30  41 CALM      30.16F
BLAIR          CLEAR     55  30  38 NE8       30.17S
FREMONT        CLEAR     51  32  49 CALM      30.18R
MILLARD        CLEAR     60  32  35 CALM      30.16F
OFFUTT AFB     CLEAR     55  30  39 NE8       30.15S
PLATTSMOUTH    CLEAR     55  30  38 NE8       30.16S
WAHOO          FAIR      55  27  34 NE7       30.16S HAZE
$$




USA.gov is the U.S. government's official web portal to all federal, state and local government web resources and services.